Location: *
(1.3500°S, 147.5000°W)
Time: 11:33:06
(UTC+00:00)

ISS - Pass Details

Date: 18 June 2021
Orbit: 419 x 421 km, 51.6° (Epoch: 27 July)

Event Time Altitude Azimuth Distance (km) Brightness Sun altitude
Exits shadow 15:14:04 10° 274° (W) 1,521 -1.5 -9.1°
Reaches altitude 10° 15:14:13 10° 277° (W) 1,490 -1.5 -9.0°
Maximum altitude 15:15:50 13° 306° (NW) 1,323 -1.5 -8.7°
Drops below altitude 10° 15:17:26 10° 335° (NNW) 1,485 -1.0 -8.3°
Sets 15:20:25 0° 4° (N) 2,343 0.4 -7.6°
